Tracking 30105 objects as of 24-Jan-2025
HD Live streaming from Space Station
objects crossing your sky now

STARLINK-32281

Track STARLINK-32281 now!
10-day predictions
STARLINK-32281 is classified as:


NORAD ID: 60375
Int'l Code: 2024-138W
Perigee: 481.6 km
Apogee: 483.2 km
Inclination: 53.2 °
Period: 94.1 minutes
Semi major axis: 6853 km
RCS: Unknown
Launch date: August 4, 2024
Source: United States (US)
Launch site: AIR FORCE WESTERN TEST RANGE (AFWTR)
Your satellite tracking list
Your tracking list is empty




NASA's NSSDC Master Catalog

Two Line Element Set (TLE):
1 60375U 24138W   25023.46881704 -.00000196  00000-0  54931-5 0  9993
2 60375  53.1613  54.8489 0001139  96.7542 263.3588 15.30188037 27726
Source of the keplerian elements: AFSPC